Location: Couloutre
(47.4081°N, 3.2259°E)
Time: 15:25:28
(UTC+00:00)

Cosmos 1814 Rocket - Pass Details

Date: 27 February 2020
Orbit: 744 x 788 km, 74.1° (Epoch: 30 March)

Event Time Altitude Azimuth Distance (km) Brightness Sun altitude
Rises 18:53:55 0° 177° (S) 3,172 7.1 -15.3°
Reaches altitude 10° 18:56:23 10° 169° (S) 2,253 6.3 -15.7°
Maximum altitude 19:01:03 38° 103° (ESE) 1,137 4.4 -16.5°
Drops below altitude 10° 19:05:46 10° 37° (NE) 2,277 6.2 -17.2°
Sets 19:08:17 0° 29° (NNE) 3,211 7.0 -17.7°
